Regional Weather Roundup
Issued by NWS Boston, MA

Home | Current Version | Previous Version | Text Only | Print | Product List | Glossary On
Versions: 1 2 3 4 5 6 7 8 9 10 11 12 13 14 15 16 17 18 19 20 21 22 23 24 25 26 27 28 29 30 31 32 33 34 35 36 37 38 39 40 41 42 43 44 45 46 47 48 49 50
000
ASUS41 KBOX 272210
RWRBOX

REGIONAL WEATHER ROUNDUP
NATIONAL WEATHER SERVICE TAUNTON MA
500 PM EST FRI FEB 27 2015

NOTE:  "FAIR" INDICATES FEW OR NO CLOUDS BELOW 12,000 FEET WITH NO
SIGNIFICANT WEATHER AND/OR OBSTRUCTIONS TO VISIBILITY.  THE FOLLOWING
OBSERVATION LOCATIONS DO NOT REPORT PRESENT WEATHER...PROVINCETOWN...
SMITHFIELD...BLOCK ISLAND...KEENE...AND OXFORD.

MAZALL-272300-
EASTERN MASSACHUSETTS

CITY           SKY/WX    TMP DP  RH WIND       PRES   REMARKS
BOSTON         PTCLDY    26  -3  28 W8        30.37R WCI  18
BEVERLY        CLEAR     24  -5  27 W6        30.36R WCI  17
LAWRENCE       CLEAR     24  -5  27 NW7       30.37R WCI  16
BEDFORD        CLEAR     24  -6  26 W7        30.35R WCI  16
BLUE HILL        N/A     22  -3  33 W10       30.32R WCI  11
NORWOOD        CLEAR     26  -6  24 NW5       30.37R WCI  20
MARSHFIELD     CLEAR     27   5  39 N3        30.39R
PLYMOUTH       CLEAR     21   5  50 E3        30.37R
TAUNTON        CLEAR     27   1  32 CALM      30.37R
NEW BEDFORD    FAIR      27   3  35 W6        30.36R WCI  20
$$

MAZALL-272300-
CAPE COD AND THE ISLANDS

CITY           SKY/WX    TMP DP  RH WIND       PRES   REMARKS
FALMOUTH       CLEAR     23   7  50 NE5       30.38R WCI  17
HYANNIS        CLEAR     23   8  52 N5        30.37R WCI  17
CHATHAM        CLEAR     23   6  48 NW5       30.39R WCI  17
PROVINCETOWN   CLEAR     23   1  39 NW7       30.39R WCI  15
NANTUCKET      CLEAR     24  10  55 SW9       30.38R WCI  14
MARTHAS VNYRD  CLEAR     24   7  48 SW9       30.38R WCI  14
$$

MAZALL-272300-
CENTRAL AND WESTERN MASSACHUSETTS

CITY           SKY/WX    TMP DP  RH WIND       PRES   REMARKS
WORCESTER      CLEAR     22  -3  33 W9        30.30R WCI  12
FITCHBURG      CLEAR     25  -5  26 NW10      30.35R WCI  15
ORANGE         CLEAR     23  -5  29 W9        30.34R WCI  13
SPRINGFIELD    CLEAR     24  -3  30 NW9       30.36R WCI  15
WESTFIELD      CLEAR     23  -2  33 NW13      30.38R WCI  11
NORTH ADAMS    CLEAR     19  -4  36 NW3       30.38R
PITTSFIELD     CLEAR     16  -2  45 NW9       30.32R WCI   4
$$

RIZALL-272300-
RHODE ISLAND

CITY           SKY/WX    TMP DP  RH WIND       PRES   REMARKS
PROVIDENCE     PTCLDY    25  11  55 S8        30.37R WCI  16
NEWPORT        CLEAR     24  13  62 SE6       30.37R WCI  17
BLOCK ISLAND   CLEAR     27  10  50 W12G17    30.37R WCI  16
SMITHFIELD     CLEAR     25   0  33 W7        30.34R WCI  17
WESTERLY       CLEAR     28   3  34 VRB6      30.39R WCI  22
$$

CTZALL-272300-
CONNECTICUT

CITY           SKY/WX    TMP DP  RH WIND       PRES   REMARKS
BRADLEY INTL   PTCLDY    25  -2  31 NW14      30.38R WCI  13
HARTFORD       CLEAR     26  -1  31 W13G21    30.41R WCI  15
BRIDGEPORT     CLEAR     27   2  34 N9        30.42R WCI  18
DANBURY        CLEAR     24  -1  33 N9        30.40R WCI  14
GROTON         CLEAR     26   6  42 W9        30.39R WCI  17
NEW HAVEN      PTCLDY    26  -1  31 N8        30.41R WCI  18
CHESTER        FAIR      27   0  31 NW5       30.38R WCI  21
MERIDEN        CLEAR     26  -1  31 W10       30.40R WCI  16
WILLIMANTIC    CLEAR     26  -2  29 W8        30.38R WCI  18
OXFORD         CLEAR     21  -2  35 N9G17     30.37R WCI  11
$$

MEZ002-015-021-024-NHZ003-005-008-011-012-014-VTZ005-008-272300-
NORTHERN NEW ENGLAND

CITY           SKY/WX    TMP DP  RH WIND       PRES   REMARKS
PORTLAND ME    PTCLDY    23   6  48 S7        30.34R WCI  15
BANGOR ME      CLEAR     19  -7  31 SW5       30.29R WCI  12
CONCORD NH     CLEAR     23  -7  26 NW12      30.35R WCI  12
MANCHESTER NH  CLEAR     24  -4  29 NW8       30.34R WCI  15
NASHUA NH      CLEAR     26  -6  24 NW9       30.36R WCI  17
PORTSMOUTH NH  PTCLDY    24  -5  27 W8        30.33R WCI  15
JAFFREY NH     CLEAR     21  -8  27 NW5       30.30R WCI  15
KEENE NH       CLEAR     23  -6  28 N7        30.35R WCI  15
BURLINGTON VT  PTCLDY    18  -5  36 NW5       30.39R WCI  11
MT. WASHINGTON PTCLDY    -8 -13  77 NW38        N/A  WCI -39
$$

NYZ052-076-272300-
EASTERN NEW YORK

CITY           SKY/WX    TMP DP  RH WIND       PRES   REMARKS
ALBANY         PTCLDY    20   0  41 W16       30.43R WCI   6
NEW YORK CITY  PTCLDY    30   7  37 NW14      30.43R WCI  19
$$

ANZALL-272300-
MARINE OBSERVATIONS

STATION/POSITION TIME  TEMP    WIND        PRES    VSBY  WAVE
                       AIR SEA DIR/SP/G                  HT/PER
                 (UTC) (F)     (DEG/KT/KT) (MB)    (MI)  (FT/S)
BOSTON BUOY      2150   26 37  320/  2/  6 1028.6R         3/11
BUZZARDS BAY     2200          200/  8/  9 1029.4R
NANTUCKET SOUND  2150   26 31  190/  4/  6 1029.1R         1/ 5
MASS BAY-STELLWA 2104   24 36  120/  2/  4   N/A    1 1/2  3/11
ISLE OF SHOALS   2200   25     270/ 12/ 14 1027.2R
S OF BLOCK IS    2108      37                N/A           5/12
$$

......................KEY.........................
  SKY/WX - SKY CONDITION/PRESENT WEATHER
  TMP    - TEMPERATURE IN FAHRENHEIT
  DWPT   - DEWPOINT IN FAHRENHEIT
  RH     - RELATIVE HUMIDITY IN PERCENT
  WIND   - DIRECTION AND SPEED IN MPH
  PRES   - MEAN SEA LEVEL PRESSURE IN INCHES OF HG
  WCI    - WIND CHILL INDEX
  VSB    - VISIBILITY IN MILES
  HX     - HEAT INDEX
  TC     - TEMPERATURE IN CELSIUS
  VRB    - VARIABLE WIND DIRECTION
  N/A    - NOT AVAILABLE


USA.gov is the U.S. government's official web portal to all federal, state and local government web resources and services.